CMP828 SEQM-MPTO

Flight info

Callsign CMP828
Flight time 1h 31m
Altitude 38000
Route NEGA3A NEGAL ENSOL UM674 TOKUT MILAT SIRIL
Aircraft B737/M-SDE3FGHIRWY/S

Departure

Time 2026-04-27 21:37
Airport Mariscal Sucre International Airport (SEQM)

Arrival

Time 2026-04-27 23:08
Airport Tocumen International Airport (MPTO)
Time Latitude Longitude Altitude Speed Heading
2026-04-27 21:14 -0.12491 -78.35928 7840 ft 0 kts 266°
2026-04-27 21:21 -0.12490 -78.35922 7840 ft 4 kts 266°
2026-04-27 21:22 -0.12489 -78.35895 7830 ft 4 kts 265°
2026-04-27 21:22 -0.12486 -78.35868 7840 ft 4 kts 258°
2026-04-27 21:22 -0.12477 -78.35844 7840 ft 4 kts 222°
2026-04-27 21:22 -0.12467 -78.35838 7840 ft 0 kts 178°
2026-04-27 21:27 -0.12469 -78.35838 7840 ft 1 kts 178°
2026-04-27 21:27 -0.12479 -78.35838 7840 ft 2 kts 178°
2026-04-27 21:27 -0.12491 -78.35838 7831 ft 2 kts 178°
2026-04-27 21:28 -0.12512 -78.35837 7840 ft 5 kts 178°
2026-04-27 21:28 -0.12548 -78.35836 7833 ft 5 kts 177°
2026-04-27 21:28 -0.12587 -78.35834 7840 ft 6 kts 176°
2026-04-27 21:28 -0.12626 -78.35831 7835 ft 6 kts 175°
2026-04-27 21:29 -0.12670 -78.35825 7837 ft 7 kts 164°
2026-04-27 21:29 -0.12694 -78.35790 7834 ft 7 kts 91°
2026-04-27 21:29 -0.12694 -78.35745 7844 ft 6 kts 86°
2026-04-27 21:29 -0.12691 -78.35701 7838 ft 6 kts 89°
2026-04-27 21:30 -0.12691 -78.35657 7847 ft 6 kts 86°
2026-04-27 21:30 -0.12701 -78.35618 7855 ft 6 kts 129°
2026-04-27 21:30 -0.12739 -78.35601 7860 ft 6 kts 169°
2026-04-27 21:30 -0.12779 -78.35598 7863 ft 6 kts 178°
2026-04-27 21:31 -0.12820 -78.35596 7865 ft 6 kts 177°
2026-04-27 21:31 -0.12870 -78.35594 7867 ft 9 kts 178°
2026-04-27 21:31 -0.12930 -78.35591 7869 ft 9 kts 178°
2026-04-27 21:31 -0.12989 -78.35589 7871 ft 8 kts 177°
2026-04-27 21:32 -0.13047 -78.35586 7874 ft 8 kts 177°
2026-04-27 21:32 -0.13102 -78.35583 7877 ft 8 kts 177°
2026-04-27 21:32 -0.13156 -78.35581 7880 ft 8 kts 184°
2026-04-27 21:32 -0.13213 -78.35579 7882 ft 10 kts 176°
2026-04-27 21:33 -0.13278 -78.35576 7883 ft 9 kts 178°
2026-04-27 21:33 -0.13347 -78.35573 7884 ft 11 kts 178°
2026-04-27 21:33 -0.13432 -78.35570 7885 ft 13 kts 178°
2026-04-27 21:33 -0.13523 -78.35566 7888 ft 13 kts 178°
2026-04-27 21:34 -0.13612 -78.35561 7891 ft 13 kts 177°
2026-04-27 21:34 -0.13698 -78.35559 7895 ft 12 kts 178°
2026-04-27 21:34 -0.13783 -78.35557 7896 ft 13 kts 177°
2026-04-27 21:34 -0.13875 -78.35552 7897 ft 14 kts 177°
2026-04-27 21:35 -0.13985 -78.35548 7909 ft 16 kts 178°
2026-04-27 21:35 -0.14095 -78.35542 7911 ft 16 kts 178°
2026-04-27 21:35 -0.14191 -78.35537 7919 ft 13 kts 170°
2026-04-27 21:35 -0.14253 -78.35480 7920 ft 13 kts 101°
2026-04-27 21:36 -0.14243 -78.35394 7918 ft 13 kts 59°
2026-04-27 21:36 -0.14148 -78.35371 7911 ft 22 kts 358°
2026-04-27 21:36 -0.13754 -78.35387 7894 ft 93 kts 357°
2026-04-27 21:36 -0.12877 -78.35421 7871 ft 154 kts 358°
2026-04-27 21:37 -0.11708 -78.35456 8285 ft 169 kts 358°
2026-04-27 21:37 -0.10571 -78.35523 9118 ft 169 kts 357°
2026-04-27 21:37 -0.09301 -78.35707 9538 ft 200 kts 345°
2026-04-27 21:37 -0.07870 -78.36158 9771 ft 231 kts 341°
2026-04-27 21:38 -0.06275 -78.36708 10007 ft 261 kts 341°
2026-04-27 21:38 -0.04424 -78.37342 10237 ft 294 kts 341°
2026-04-27 21:38 -0.02382 -78.38028 10565 ft 322 kts 342°
2026-04-27 21:38 -0.00221 -78.38742 11344 ft 331 kts 342°
2026-04-27 21:39 0.01953 -78.39450 12284 ft 334 kts 342°
2026-04-27 21:39 0.04212 -78.40180 13184 ft 340 kts 342°
2026-04-27 21:39 0.06458 -78.40901 14014 ft 346 kts 342°
2026-04-27 21:39 0.08769 -78.41643 14891 ft 351 kts 343°
2026-04-27 21:40 0.11103 -78.42389 15801 ft 355 kts 343°
2026-04-27 21:40 0.13474 -78.43148 16632 ft 361 kts 343°
2026-04-27 21:40 0.15875 -78.43944 17424 ft 367 kts 341°
2026-04-27 21:40 0.18268 -78.44881 18216 ft 372 kts 339°
2026-04-27 21:41 0.20722 -78.45734 18997 ft 375 kts 347°
2026-04-27 21:41 0.23285 -78.46304 19776 ft 379 kts 350°
2026-04-27 21:41 0.25888 -78.46814 20436 ft 385 kts 350°
2026-04-27 21:41 0.28527 -78.47320 21140 ft 388 kts 351°
2026-04-27 21:42 0.31199 -78.47843 21818 ft 394 kts 350°
2026-04-27 21:42 0.33889 -78.48376 22501 ft 396 kts 350°
2026-04-27 21:42 0.36609 -78.48923 23083 ft 401 kts 350°
2026-04-27 21:42 0.39360 -78.49481 23662 ft 406 kts 350°
2026-04-27 21:43 0.42144 -78.50052 24247 ft 410 kts 350°
2026-04-27 21:43 0.44948 -78.50630 24799 ft 413 kts 350°
2026-04-27 21:43 0.47770 -78.51213 25323 ft 417 kts 349°
2026-04-27 21:43 0.50619 -78.51802 25844 ft 420 kts 349°
2026-04-27 21:44 0.53495 -78.52396 26378 ft 423 kts 349°
2026-04-27 21:44 0.56389 -78.52994 26884 ft 427 kts 349°
2026-04-27 21:44 0.59306 -78.53597 27371 ft 430 kts 349°
2026-04-27 21:44 0.62249 -78.54205 27857 ft 433 kts 349°
2026-04-27 21:45 0.65211 -78.54816 28329 ft 436 kts 349°
2026-04-27 21:45 0.68194 -78.55433 28795 ft 439 kts 349°
2026-04-27 21:45 0.71202 -78.56054 29246 ft 442 kts 348°
2026-04-27 21:45 0.74220 -78.56678 29693 ft 445 kts 348°
2026-04-27 21:46 0.77263 -78.57306 30104 ft 448 kts 348°
2026-04-27 21:46 0.80322 -78.57937 30505 ft 451 kts 348°
2026-04-27 21:46 0.83408 -78.58575 30895 ft 454 kts 348°
2026-04-27 21:46 0.86509 -78.59216 31278 ft 456 kts 348°
2026-04-27 21:47 0.89621 -78.59859 31740 ft 457 kts 348°
2026-04-27 21:47 0.92722 -78.60500 32331 ft 454 kts 348°
2026-04-27 21:47 0.95806 -78.61137 32909 ft 452 kts 348°
2026-04-27 21:47 0.98884 -78.61773 33419 ft 451 kts 348°
2026-04-27 21:48 1.01913 -78.62398 33926 ft 450 kts 348°
2026-04-27 21:48 1.05020 -78.63040 34414 ft 449 kts 348°
2026-04-27 21:48 1.08072 -78.63670 34893 ft 448 kts 348°
2026-04-27 21:48 1.11127 -78.64301 35393 ft 446 kts 348°
2026-04-27 21:49 1.14119 -78.64919 35866 ft 444 kts 347°
2026-04-27 21:49 1.17143 -78.65544 36288 ft 444 kts 347°
2026-04-27 21:49 1.20170 -78.66170 36645 ft 444 kts 347°
2026-04-27 21:49 1.23187 -78.66794 37088 ft 441 kts 347°
2026-04-27 21:50 1.26170 -78.67410 37670 ft 434 kts 347°
2026-04-27 21:50 1.29122 -78.68020 37990 ft 436 kts 347°
2026-04-27 21:50 1.35133 -78.69168 37963 ft 441 kts 350°
2026-04-27 21:51 1.41170 -78.69915 37947 ft 433 kts 352°
2026-04-27 21:51 1.47163 -78.70594 37922 ft 434 kts 352°
2026-04-27 21:52 1.53155 -78.71311 37907 ft 434 kts 352°
2026-04-27 21:52 1.59154 -78.72049 37893 ft 435 kts 351°
2026-04-27 21:53 1.65157 -78.72791 37877 ft 435 kts 351°
2026-04-27 21:53 1.71171 -78.73534 37868 ft 436 kts 351°
2026-04-27 21:54 1.77188 -78.74277 37854 ft 436 kts 352°
2026-04-27 21:54 1.83221 -78.75010 37855 ft 436 kts 352°
2026-04-27 21:55 1.89243 -78.75711 37857 ft 435 kts 352°
2026-04-27 21:55 1.95250 -78.76397 37855 ft 434 kts 352°
2026-04-27 21:56 2.04186 -78.77435 37861 ft 433 kts 352°
2026-04-27 21:57 2.10168 -78.78114 37861 ft 433 kts 352°
2026-04-27 21:57 2.16161 -78.78799 37862 ft 434 kts 352°
2026-04-27 21:58 2.22165 -78.79489 37859 ft 434 kts 352°
2026-04-27 21:58 2.28174 -78.80180 37859 ft 435 kts 352°
2026-04-27 21:59 2.34184 -78.80873 37861 ft 435 kts 352°
2026-04-27 21:59 2.40200 -78.81565 37862 ft 435 kts 352°
2026-04-27 22:00 2.46223 -78.82259 37856 ft 435 kts 352°
2026-04-27 22:00 2.51223 -78.82835 37861 ft 435 kts 352°
2026-04-27 22:01 2.57242 -78.83529 37862 ft 435 kts 352°
2026-04-27 22:01 2.63261 -78.84222 37864 ft 435 kts 352°
2026-04-27 22:02 2.69276 -78.84915 37858 ft 435 kts 352°
2026-04-27 22:02 2.75290 -78.85608 37861 ft 434 kts 352°
2026-04-27 22:03 2.81293 -78.86300 37862 ft 434 kts 352°
2026-04-27 22:03 2.87290 -78.86991 37857 ft 434 kts 351°
2026-04-27 22:04 2.93284 -78.87682 37863 ft 434 kts 351°
2026-04-27 22:04 2.99288 -78.88375 37863 ft 434 kts 351°
2026-04-27 22:05 3.05290 -78.89064 37862 ft 434 kts 351°
2026-04-27 22:05 3.11291 -78.89756 37858 ft 434 kts 351°
2026-04-27 22:06 3.17301 -78.90451 37849 ft 435 kts 351°
2026-04-27 22:06 3.23310 -78.91145 37851 ft 435 kts 351°
2026-04-27 22:07 3.29310 -78.91836 37852 ft 434 kts 351°
2026-04-27 22:07 3.35310 -78.92526 37852 ft 434 kts 351°
2026-04-27 22:08 3.41265 -78.93215 37853 ft 433 kts 351°
2026-04-27 22:08 3.47257 -78.93908 37855 ft 433 kts 351°
2026-04-27 22:09 3.53247 -78.94600 37851 ft 434 kts 351°
2026-04-27 22:09 3.59242 -78.95291 37854 ft 434 kts 351°
2026-04-27 22:10 3.65241 -78.95983 37849 ft 434 kts 351°
2026-04-27 22:10 3.71238 -78.96675 37849 ft 434 kts 351°
2026-04-27 22:11 3.77239 -78.97368 37851 ft 434 kts 351°
2026-04-27 22:11 3.83238 -78.98061 37850 ft 434 kts 351°
2026-04-27 22:12 3.89239 -78.98754 37853 ft 434 kts 351°
2026-04-27 22:12 3.95234 -78.99447 37859 ft 434 kts 351°
2026-04-27 22:13 4.01190 -79.00135 37855 ft 434 kts 351°
2026-04-27 22:13 4.07221 -79.00832 37852 ft 433 kts 351°
2026-04-27 22:14 4.13215 -79.01525 37852 ft 433 kts 351°
2026-04-27 22:14 4.19206 -79.02217 37850 ft 433 kts 351°
2026-04-27 22:15 4.25152 -79.02904 37852 ft 433 kts 351°
2026-04-27 22:15 4.31143 -79.03598 37842 ft 434 kts 351°
2026-04-27 22:16 4.37140 -79.04289 37843 ft 434 kts 351°
2026-04-27 22:16 4.43134 -79.04983 37841 ft 433 kts 351°
2026-04-27 22:17 4.49126 -79.05678 37846 ft 434 kts 351°
2026-04-27 22:17 4.55114 -79.06371 37841 ft 433 kts 351°
2026-04-27 22:18 4.61106 -79.07064 37844 ft 433 kts 351°
2026-04-27 22:18 4.67087 -79.07756 37841 ft 433 kts 351°
2026-04-27 22:19 4.73068 -79.08449 37843 ft 433 kts 351°
2026-04-27 22:19 4.79039 -79.09139 37842 ft 432 kts 351°
2026-04-27 22:20 4.85017 -79.09831 37844 ft 432 kts 351°
2026-04-27 22:20 4.90994 -79.10524 37841 ft 433 kts 351°
2026-04-27 22:21 4.96977 -79.11216 37844 ft 432 kts 351°
2026-04-27 22:21 5.02953 -79.11909 37842 ft 432 kts 351°
2026-04-27 22:22 5.08927 -79.12601 37843 ft 433 kts 351°
2026-04-27 22:22 5.14921 -79.13296 37843 ft 433 kts 351°
2026-04-27 22:23 5.20903 -79.13990 37843 ft 433 kts 351°
2026-04-27 22:23 5.26893 -79.14684 37843 ft 433 kts 351°
2026-04-27 22:24 5.32876 -79.15378 37844 ft 433 kts 351°
2026-04-27 22:24 5.38850 -79.16071 37842 ft 432 kts 351°
2026-04-27 22:25 5.44816 -79.16762 37844 ft 431 kts 351°
2026-04-27 22:25 5.50782 -79.17455 37842 ft 431 kts 351°
2026-04-27 22:26 5.56738 -79.18147 37845 ft 431 kts 351°
2026-04-27 22:26 5.62693 -79.18838 37840 ft 431 kts 351°
2026-04-27 22:27 5.68648 -79.19530 37844 ft 431 kts 351°
2026-04-27 22:27 5.74565 -79.20217 37843 ft 431 kts 351°
2026-04-27 22:28 5.80512 -79.20908 37833 ft 432 kts 351°
2026-04-27 22:28 5.86479 -79.21602 37832 ft 432 kts 351°
2026-04-27 22:29 5.92444 -79.22294 37833 ft 431 kts 351°
2026-04-27 22:29 5.98412 -79.22994 37831 ft 431 kts 351°
2026-04-27 22:30 6.04368 -79.23701 37830 ft 431 kts 351°
2026-04-27 22:30 6.10337 -79.24410 37836 ft 432 kts 351°
2026-04-27 22:31 6.16302 -79.25120 37833 ft 432 kts 351°
2026-04-27 22:31 6.22278 -79.25832 37836 ft 433 kts 351°
2026-04-27 22:32 6.28259 -79.26542 37844 ft 433 kts 351°
2026-04-27 22:32 6.34239 -79.27251 37842 ft 433 kts 351°
2026-04-27 22:33 6.40215 -79.27961 37842 ft 433 kts 351°
2026-04-27 22:33 6.46203 -79.28672 37844 ft 433 kts 351°
2026-04-27 22:34 6.52179 -79.29383 37843 ft 433 kts 351°
2026-04-27 22:34 6.58161 -79.30093 37843 ft 433 kts 351°
2026-04-27 22:35 6.64105 -79.30800 37841 ft 433 kts 351°
2026-04-27 22:35 6.70081 -79.31511 37843 ft 433 kts 351°
2026-04-27 22:36 6.76064 -79.32223 37844 ft 433 kts 351°
2026-04-27 22:36 6.82048 -79.32935 37841 ft 433 kts 351°
2026-04-27 22:37 6.88030 -79.33647 37842 ft 434 kts 351°
2026-04-27 22:37 6.94020 -79.34361 37844 ft 434 kts 351°
2026-04-27 22:38 7.00016 -79.35076 37845 ft 434 kts 351°
2026-04-27 22:38 7.06017 -79.35792 37837 ft 434 kts 351°
2026-04-27 22:39 7.12021 -79.36506 37843 ft 435 kts 351°
2026-04-27 22:39 7.18026 -79.37222 37844 ft 435 kts 351°
2026-04-27 22:40 7.24035 -79.37938 37851 ft 435 kts 351°
2026-04-27 22:40 7.30044 -79.38660 37854 ft 435 kts 349°
2026-04-27 22:41 7.35973 -79.39795 37858 ft 433 kts 345°
2026-04-27 22:41 7.41857 -79.41157 37851 ft 434 kts 345°
2026-04-27 22:42 7.47746 -79.42494 37855 ft 434 kts 345°
2026-04-27 22:42 7.53671 -79.43797 37341 ft 437 kts 345°
2026-04-27 22:42 7.56637 -79.44441 36795 ft 436 kts 346°
2026-04-27 22:43 7.59600 -79.45084 36237 ft 435 kts 346°
2026-04-27 22:43 7.62563 -79.45727 35640 ft 436 kts 346°
2026-04-27 22:43 7.65528 -79.46371 35050 ft 436 kts 346°
2026-04-27 22:43 7.68481 -79.47013 34593 ft 433 kts 346°
2026-04-27 22:44 7.71380 -79.47643 34117 ft 431 kts 346°
2026-04-27 22:44 7.74304 -79.48279 33643 ft 429 kts 346°
2026-04-27 22:44 7.77212 -79.48911 33169 ft 427 kts 346°
2026-04-27 22:44 7.80108 -79.49542 32698 ft 425 kts 346°
2026-04-27 22:45 7.82989 -79.50169 32230 ft 423 kts 347°
2026-04-27 22:45 7.85861 -79.50795 31764 ft 421 kts 347°
2026-04-27 22:45 7.88718 -79.51417 31301 ft 420 kts 347°
2026-04-27 22:45 7.91569 -79.52038 30839 ft 418 kts 347°
2026-04-27 22:46 7.94409 -79.52657 30384 ft 417 kts 347°
2026-04-27 22:46 7.97240 -79.53274 29931 ft 415 kts 348°
2026-04-27 22:46 8.00059 -79.53888 29481 ft 413 kts 348°
2026-04-27 22:46 8.02860 -79.54498 29010 ft 411 kts 348°
2026-04-27 22:47 8.05646 -79.55104 28528 ft 409 kts 348°
2026-04-27 22:47 8.08424 -79.55668 28038 ft 406 kts 353°
2026-04-27 22:47 8.11240 -79.55800 27533 ft 404 kts
2026-04-27 22:47 8.14037 -79.55752 27044 ft 401 kts
2026-04-27 22:48 8.15880 -79.55694 26720 ft 399 kts
2026-04-27 22:48 8.18641 -79.55604 26241 ft 396 kts
2026-04-27 22:48 8.21384 -79.55528 25765 ft 392 kts
2026-04-27 22:48 8.24101 -79.55468 25298 ft 389 kts
2026-04-27 22:49 8.26795 -79.55421 24827 ft 385 kts
2026-04-27 22:49 8.29463 -79.55382 24360 ft 382 kts
2026-04-27 22:49 8.32109 -79.55347 23893 ft 378 kts
2026-04-27 22:49 8.34727 -79.55315 23427 ft 374 kts
2026-04-27 22:50 8.37322 -79.55283 22958 ft 371 kts
2026-04-27 22:50 8.39894 -79.55250 22480 ft 368 kts
2026-04-27 22:50 8.42440 -79.55218 22029 ft 364 kts
2026-04-27 22:50 8.44963 -79.55187 21542 ft 362 kts
2026-04-27 22:51 8.47468 -79.55155 21089 ft 359 kts
2026-04-27 22:51 8.49951 -79.55123 20628 ft 356 kts
2026-04-27 22:51 8.52416 -79.55092 20174 ft 352 kts
2026-04-27 22:51 8.54855 -79.55062 19718 ft 349 kts
2026-04-27 22:52 8.57274 -79.55031 19260 ft 346 kts
2026-04-27 22:52 8.59628 -79.54648 18783 ft 344 kts 20°
2026-04-27 22:52 8.61697 -79.53489 18378 ft 339 kts 37°
2026-04-27 22:52 8.63539 -79.52024 17961 ft 335 kts 39°
2026-04-27 22:53 8.65321 -79.50537 17633 ft 329 kts 40°
2026-04-27 22:53 8.67079 -79.49064 17224 ft 328 kts 39°
2026-04-27 22:53 8.68834 -79.47603 16837 ft 326 kts 39°
2026-04-27 22:53 8.70583 -79.46159 16434 ft 325 kts 39°
2026-04-27 22:54 8.72339 -79.44718 16029 ft 323 kts 39°
2026-04-27 22:54 8.74083 -79.43292 15624 ft 322 kts 39°
2026-04-27 22:54 8.75817 -79.41875 15217 ft 320 kts 39°
2026-04-27 22:54 8.77544 -79.40467 14814 ft 318 kts 39°
2026-04-27 22:55 8.79257 -79.39069 14419 ft 315 kts 39°
2026-04-27 22:55 8.80956 -79.37682 14030 ft 313 kts 39°
2026-04-27 22:55 8.82643 -79.36308 13651 ft 311 kts 38°
2026-04-27 22:55 8.84327 -79.34939 13255 ft 308 kts 39°
2026-04-27 22:56 8.85962 -79.33575 12860 ft 303 kts 39°
2026-04-27 22:56 8.87595 -79.32243 12486 ft 300 kts 39°
2026-04-27 22:56 8.89209 -79.30920 12109 ft 298 kts 39°
2026-04-27 22:56 8.90818 -79.29617 11740 ft 296 kts 39°
2026-04-27 22:57 8.92423 -79.28315 11369 ft 294 kts 39°
2026-04-27 22:57 8.93992 -79.27053 10996 ft 292 kts 38°
2026-04-27 22:57 8.95569 -79.25768 10629 ft 291 kts 39°
2026-04-27 22:57 8.97196 -79.24508 10253 ft 291 kts 32°
2026-04-27 22:58 8.98962 -79.23534 9882 ft 287 kts 26°
2026-04-27 22:58 9.00740 -79.22692 9539 ft 283 kts 24°
2026-04-27 22:58 9.02526 -79.21855 9163 ft 283 kts 24°
2026-04-27 22:58 9.04299 -79.20997 8782 ft 282 kts 26°
2026-04-27 22:59 9.06057 -79.20140 8415 ft 279 kts 25°
2026-04-27 22:59 9.07794 -79.19295 8072 ft 277 kts 25°
2026-04-27 22:59 9.09520 -79.18457 7714 ft 273 kts 25°
2026-04-27 22:59 9.11211 -79.17619 7376 ft 269 kts 26°
2026-04-27 23:00 9.14510 -79.15973 6698 ft 257 kts 25°
2026-04-27 23:00 9.16083 -79.15194 6388 ft 247 kts 25°
2026-04-27 23:00 9.17614 -79.14471 6081 ft 238 kts 16°
2026-04-27 23:01 9.19214 -79.14428 5837 ft 227 kts 345°
2026-04-27 23:01 9.20570 -79.15125 5569 ft 214 kts 322°
2026-04-27 23:01 9.21515 -79.16235 5277 ft 204 kts 301°
2026-04-27 23:01 9.22158 -79.17488 5039 ft 198 kts 298°
2026-04-27 23:02 9.22742 -79.18722 4779 ft 190 kts 297°
2026-04-27 23:02 9.23304 -79.19908 4552 ft 186 kts 297°
2026-04-27 23:02 9.23859 -79.21086 4323 ft 184 kts 294°
2026-04-27 23:02 9.23989 -79.22347 4096 ft 181 kts 257°
2026-04-27 23:03 9.23363 -79.23415 3882 ft 176 kts 226°
2026-04-27 23:03 9.22523 -79.24286 3669 ft 171 kts 227°
2026-04-27 23:03 9.21707 -79.25139 3486 ft 164 kts 227°
2026-04-27 23:03 9.20908 -79.25972 3305 ft 166 kts 227°
2026-04-27 23:04 9.20102 -79.26811 3097 ft 167 kts 228°
2026-04-27 23:04 9.19296 -79.27650 2877 ft 166 kts 227°
2026-04-27 23:04 9.18489 -79.28489 2669 ft 167 kts 226°
2026-04-27 23:04 9.17678 -79.29331 2431 ft 165 kts 225°
2026-04-27 23:05 9.16907 -79.30123 2204 ft 154 kts 224°
2026-04-27 23:05 9.16183 -79.30885 2047 ft 143 kts 227°
2026-04-27 23:05 9.15490 -79.31599 1827 ft 144 kts 227°
2026-04-27 23:05 9.14793 -79.32322 1641 ft 143 kts 227°
2026-04-27 23:06 9.14104 -79.33038 1454 ft 141 kts 225°
2026-04-27 23:06 9.13421 -79.33746 1266 ft 139 kts 225°
2026-04-27 23:06 9.12755 -79.34436 1078 ft 132 kts 225°
2026-04-27 23:06 9.12115 -79.35116 882 ft 132 kts 225°
2026-04-27 23:07 9.11477 -79.35789 644 ft 134 kts 225°
2026-04-27 23:07 9.10821 -79.36443 438 ft 136 kts 221°
2026-04-27 23:07 9.10080 -79.37027 278 ft 134 kts 215°
2026-04-27 23:07 9.09310 -79.37517 90 ft 127 kts 210°
2026-04-27 23:08 9.08601 -79.37937 46 ft 99 kts 210°
2026-04-27 23:08 9.08194 -79.38181 45 ft 38 kts 211°
2026-04-27 23:08 9.08059 -79.38264 46 ft 20 kts 211°
2026-04-27 23:08 9.07940 -79.38336 47 ft 20 kts 210°
2026-04-27 23:09 9.07823 -79.38404 48 ft 19 kts 210°
2026-04-27 23:09 9.07707 -79.38439 48 ft 18 kts 146°
2026-04-27 23:09 9.07630 -79.38348 34 ft 9 kts 168°
2026-04-27 23:09 9.07580 -79.38376 33 ft 8 kts 228°
2026-04-27 23:10 9.07529 -79.38410 34 ft 10 kts 210°
2026-04-27 23:10 9.07457 -79.38454 34 ft 13 kts 212°
2026-04-27 23:10 9.07378 -79.38502 34 ft 13 kts 210°
2026-04-27 23:10 9.07301 -79.38547 34 ft 13 kts 207°
2026-04-27 23:11 9.07222 -79.38585 33 ft 12 kts 205°
2026-04-27 23:11 9.07163 -79.38611 32 ft 6 kts 203°
2026-04-27 23:11 9.07124 -79.38625 31 ft 6 kts 160°
2026-04-27 23:11 9.07109 -79.38604 31 ft 2 kts 122°
2026-04-27 23:12 9.07104 -79.38596 31 ft 1 kts 122°
2026-04-27 23:12 9.07104 -79.38595 31 ft 0 kts 122°